• In Uzbekistan
  • List of Countries
  • For 7 days
  • Water Temperature
  • Satellite Maps
  • Weather Map
  • Weather Widgets
  • user-avatar
    Login

    Hourly Weather Alexandreia

    Today, 20 November, Monday

    Time Temperature Precipitation Wind Pressure Humidity
    00:00 +12°C° 0.2 mm 1 mps 756 mmHg 82%
    01:00 +12°C° 0 mm 1 mps 756 mmHg 83%
    02:00 +10°C° 0.3 mm 2 mps 756 mmHg 82%
    03:00 +10°C° 0.3 mm 3 mps 756 mmHg 82%
    04:00 +10°C° 0.3 mm 3 mps 756 mmHg 82%
    05:00 +8°C° 0.3 mm 4 mps 757 mmHg 79%
    06:00 +8°C° 0.3 mm 5 mps 757 mmHg 77%
    07:00 +8°C° 0.3 mm 6 mps 757 mmHg 74%
    08:00 +8°C° 0.1 mm 6 mps 758 mmHg 69%
    09:00 +8°C° 0.1 mm 7 mps 758 mmHg 64%
    10:00 +9°C° 0.1 mm 7 mps 759 mmHg 58%
    11:00 +9°C° 0 mm 7 mps 759 mmHg 55%
    12:00 +9°C° 0 mm 8 mps 759 mmHg 52%
    13:00 +10°C° 0 mm 8 mps 760 mmHg 49%
    14:00 +9°C° 0 mm 7 mps 760 mmHg 51%
    15:00 +8°C° 0 mm 6 mps 761 mmHg 54%
    16:00 +7°C° 0 mm 5 mps 761 mmHg 56%
    17:00 +7°C° 0 mm 5 mps 762 mmHg 59%
    18:00 +6°C° 0 mm 5 mps 763 mmHg 61%
    19:00 +6°C° 0 mm 4 mps 763 mmHg 63%
    20:00 +6°C° 0 mm 4 mps 764 mmHg 64%
    21:00 +5°C° 0 mm 4 mps 764 mmHg 66%
    22:00 +5°C° 0 mm 4 mps 765 mmHg 67%
    23:00 +5°C° 0 mm 4 mps 765 mmHg 68%

    Tomorrow, 21 November, Tuesday

    Time Temperature Precipitation Wind Pressure Humidity
    00:00 +5°C° 0 mm 4 mps 765 mmHg 69%
    01:00 +5°C° 0 mm 3 mps 765 mmHg 71%
    02:00 +4°C° 0 mm 3 mps 765 mmHg 71%
    03:00 +4°C° 0 mm 3 mps 766 mmHg 72%
    04:00 +4°C° 0 mm 3 mps 766 mmHg 72%
    05:00 +4°C° 0 mm 3 mps 766 mmHg 72%
    06:00 +4°C° 0 mm 3 mps 766 mmHg 71%
    07:00 +5°C° 0 mm 2 mps 766 mmHg 71%
    08:00 +7°C° 0 mm 2 mps 766 mmHg 63%
    09:00 +9°C° 0 mm 2 mps 766 mmHg 56%
    10:00 +10°C° 0 mm 2 mps 766 mmHg 49%
    11:00 +12°C° 0 mm 2 mps 765 mmHg 46%
    12:00 +13°C° 0 mm 1 mps 765 mmHg 43%
    13:00 +14°C° 0 mm 1 mps 764 mmHg 40%
    14:00 +13°C° 0 mm 1 mps 764 mmHg 44%
    15:00 +12°C° 0 mm 1 mps 764 mmHg 48%
    16:00 +11°C° 0 mm 1 mps 764 mmHg 52%
    17:00 +11°C° 0 mm 1 mps 764 mmHg 53%
    18:00 +10°C° 0 mm 1 mps 765 mmHg 54%
    19:00 +10°C° 0 mm 1 mps 765 mmHg 56%
    20:00 +10°C° 0 mm 1 mps 765 mmHg 56%
    21:00 +10°C° 0 mm 1 mps 765 mmHg 57%
    22:00 +9°C° 0 mm 1 mps 766 mmHg 58%
    23:00 +9°C° 0 mm 1 mps 766 mmHg 58%

    Day after tomorrow, 22 November, Wednesday

    Time Temperature Precipitation Wind Pressure Humidity
    00:00 +9°C° 0 mm 1 mps 765 mmHg 58%
    01:00 +8°C° 0 mm 2 mps 765 mmHg 59%
    02:00 +8°C° 0 mm 2 mps 765 mmHg 58%
    03:00 +8°C° 0 mm 2 mps 765 mmHg 58%
    04:00 +7°C° 0 mm 2 mps 765 mmHg 58%
    05:00 +8°C° 0 mm 2 mps 765 mmHg 57%
    06:00 +8°C° 0 mm 2 mps 765 mmHg 57%
    07:00 +8°C° 0 mm 2 mps 766 mmHg 57%
    08:00 +10°C° 0 mm 2 mps 765 mmHg 52%
    09:00 +13°C° 0 mm 2 mps 765 mmHg 47%
    10:00 +14°C° 0 mm 2 mps 765 mmHg 43%
    11:00 +15°C° 0 mm 2 mps 765 mmHg 41%
    12:00 +16°C° 0 mm 1 mps 764 mmHg 40%
    13:00 +18°C° 0 mm 1 mps 764 mmHg 39%
    14:00 +16°C° 0 mm 1 mps 764 mmHg 43%
    15:00 +15°C° 0 mm 1 mps 764 mmHg 47%
    16:00 +14°C° 0 mm 1 mps 764 mmHg 52%
    17:00 +14°C° 0 mm 1 mps 765 mmHg 53%
    18:00 +13°C° 0 mm 1 mps 765 mmHg 54%
    19:00 +13°C° 0 mm 1 mps 765 mmHg 56%
    20:00 +13°C° 0 mm 1 mps 766 mmHg 57%
    21:00 +12°C° 0 mm 1 mps 766 mmHg 58%
    22:00 +12°C° 0 mm 1 mps 766 mmHg 59%
    23:00 +12°C° 0 mm 1 mps 766 mmHg 60%

    23 November, Thursday

    Time Temperature Precipitation Wind Pressure Humidity
    00:00 +12°C° 0 mm 1 mps 766 mmHg 61%
    01:00 +10°C° 0 mm 2 mps 766 mmHg 62%
    02:00 +10°C° 0 mm 2 mps 766 mmHg 63%
    03:00 +10°C° 0 mm 2 mps 765 mmHg 63%
    04:00 +10°C° 0 mm 2 mps 765 mmHg 64%
    05:00 +10°C° 0 mm 2 mps 766 mmHg 64%
    06:00 +11°C° 0 mm 1 mps 766 mmHg 65%
    07:00 +11°C° 0 mm 1 mps 766 mmHg 65%
    08:00 +13°C° 0 mm 1 mps 766 mmHg 60%
    09:00 +15°C° 0 mm 1 mps 766 mmHg 54%
    10:00 +18°C° 0 mm 1 mps 766 mmHg 48%
    11:00 +18°C° 0 mm 1 mps 765 mmHg 47%
    12:00 +19°C° 0 mm 1 mps 765 mmHg 45%
    13:00 +20°C° 0 mm 1 mps 765 mmHg 43%
    14:00 +19°C° 0 mm 1 mps 765 mmHg 48%
    15:00 +16°C° 0 mm 0 mps 765 mmHg 52%
    16:00 +15°C° 0 mm 0 mps 765 mmHg 57%
    17:00 +14°C° 0 mm 0 mps 765 mmHg 58%
    18:00 +15°C° 0 mm 1 mps 766 mmHg 59%
    19:00 +14°C° 0 mm 1 mps 766 mmHg 60%
    20:00 +14°C° 0 mm 1 mps 766 mmHg 61%
    21:00 +14°C° 0 mm 1 mps 767 mmHg 62%
    22:00 +13°C° 0 mm 1 mps 767 mmHg 63%
    23:00 +13°C° 0 mm 1 mps 767 mmHg 64%

    24 November, Friday

    Time Temperature Precipitation Wind Pressure Humidity
    00:00 +13°C° 0 mm 1 mps 767 mmHg 64%
    01:00 +12°C° 0 mm 1 mps 767 mmHg 65%
    02:00 +12°C° 0 mm 1 mps 767 mmHg 66%
    03:00 +12°C° 0 mm 1 mps 767 mmHg 66%
    04:00 +12°C° 0 mm 1 mps 767 mmHg 67%
    05:00 +12°C° 0 mm 1 mps 767 mmHg 67%
    06:00 +12°C° 0 mm 1 mps 767 mmHg 68%
    07:00 +11°C° 0 mm 1 mps 767 mmHg 68%
    08:00 +13°C° 0 mm 1 mps 767 mmHg 62%
    09:00 +15°C° 0 mm 1 mps 767 mmHg 57%
    10:00 +18°C° 0 mm 1 mps 767 mmHg 51%
    11:00 +18°C° 0 mm 1 mps 766 mmHg 49%
    12:00 +19°C° 0 mm 1 mps 766 mmHg 48%
    13:00 +19°C° 0 mm 1 mps 765 mmHg 46%
    14:00 +18°C° 0 mm 1 mps 765 mmHg 51%
    15:00 +16°C° 0 mm 1 mps 766 mmHg 55%
    16:00 +15°C° 0 mm 1 mps 766 mmHg 60%
    17:00 +14°C° 0 mm 0 mps 766 mmHg 62%
    18:00 +13°C° 0 mm 0 mps 767 mmHg 64%
    19:00 +12°C° 0 mm 0 mps 767 mmHg 67%
    20:00 +12°C° 0 mm 0 mps 767 mmHg 68%
    21:00 +12°C° 0 mm 0 mps 767 mmHg 69%
    22:00 +12°C° 0 mm 0 mps 768 mmHg 71%
    23:00 +12°C° 0 mm 1 mps 768 mmHg 72%

    25 November, Saturday

    Time Temperature Precipitation Wind Pressure Humidity
    00:00 +12°C° 0 mm 1 mps 768 mmHg 72%
    01:00 +12°C° 0 mm 1 mps 768 mmHg 73%
    02:00 +11°C° 0 mm 1 mps 768 mmHg 74%
    03:00 +11°C° 0 mm 1 mps 768 mmHg 75%
    04:00 +11°C° 0 mm 1 mps 768 mmHg 75%
    05:00 +11°C° 0 mm 1 mps 768 mmHg 75%
    06:00 +11°C° 0 mm 1 mps 769 mmHg 75%
    07:00 +11°C° 0 mm 1 mps 769 mmHg 75%
    08:00 +12°C° 0 mm 1 mps 769 mmHg 69%
    09:00 +14°C° 0 mm 1 mps 768 mmHg 63%
    10:00 +15°C° 0 mm 1 mps 768 mmHg 56%
    11:00 +16°C° 0 mm 1 mps 768 mmHg 55%
    12:00 +18°C° 0 mm 1 mps 767 mmHg 53%
    13:00 +18°C° 0 mm 1 mps 767 mmHg 51%
    14:00 +16°C° 0 mm 1 mps 767 mmHg 56%
    15:00 +15°C° 0 mm 1 mps 767 mmHg 61%
    16:00 +14°C° 0 mm 1 mps 767 mmHg 66%
    17:00 +14°C° 0 mm 1 mps 768 mmHg 69%
    18:00 +13°C° 0 mm 1 mps 768 mmHg 71%
    19:00 +13°C° 0 mm 1 mps 768 mmHg 74%
    20:00 +11°C° 0 mm 0 mps 768 mmHg 76%
    21:00 +11°C° 0 mm 0 mps 769 mmHg 77%
    22:00 +11°C° 0 mm 0 mps 769 mmHg 79%
    23:00 +12°C° 0 mm 1 mps 769 mmHg 80%
    Show more